Location: Unspecified
(0.0000°N, 0.0000°E)
Time: 00:07:37
(UTC+00:00)

N. Korean satellite - Pass Details

Date: 19 February 2020
Orbit: 456 x 505 km, 97.2° (Epoch: 26 February)

Event Time Altitude Azimuth Distance (km) Brightness Sun altitude
Rises 04:37:25 0° 41° (NE) 2,579 10.6 -23.6°
Reaches altitude 10° 04:40:12 10° 64° (ENE) 1,693 10.0 -22.9°
Maximum altitude 04:42:21 15° 101° (E) 1,396 9.9 -22.4°
Drops below altitude 10° 04:44:31 10° 138° (SE) 1,684 10.0 -21.9°
Sets 04:47:15 0° 161° (SSE) 2,558 10.7 -21.2°
